This is the latest recevied weather packets stored in our database for station/object CX5ACA-13. If no packets are shown the sender has not sent any weather packets the latest 10 day(s).
| Time | Temp. | Humidity | Pressure | Rain* | Wind** | Luminosity | Snow |
|---|---|---|---|---|---|---|---|
| 1778101407 | 25.56° C | 85% | 1006.1 hPa | 0 mm | - | 2 W/m² | - |
| 1778101104 | 25.56° C | 84% | 1006.3 hPa | 0 mm | - | 3 W/m² | - |
| 1778100800 | 26.11° C | 84% | 1006.4 hPa | 0 mm | - | 5 W/m² | - |
| 1778100496 | 26.11° C | 83% | 1006.2 hPa | 0 mm | - | 8 W/m² | - |
| 1778100194 | 26.11° C | 83% | 1006.1 hPa | 0 mm | - | 12 W/m² | - |
| 1778099892 | 26.11° C | 82% | 1006.1 hPa | 0 mm | - | 15 W/m² | - |
| 1778099589 | 26.67° C | 82% | 1006.3 hPa | 0 mm | - | 19 W/m² | - |
| 1778099286 | 26.67° C | 81% | 1006.4 hPa | 0 mm | - | 24 W/m² | - |
| 1778098982 | 26.67° C | 81% | 1006.3 hPa | 0 mm | - | 30 W/m² | - |
| 1778098679 | 26.67° C | 80% | 1006.6 hPa | 0 mm | - | 36 W/m² | - |
| 1778098376 | 27.22° C | 79% | 1006.5 hPa | 0 mm | - | 43 W/m² | - |
| 1778098073 | 26.67° C | 80% | 1006.6 hPa | 0 mm | - | 50 W/m² | - |
| 1778097769 | 27.22° C | 79% | 1006.5 hPa | 0 mm | - | 58 W/m² | - |
| 1778097466 | 27.22° C | 79% | 1006.6 hPa | 0 mm | - | 68 W/m² | - |
| 1778097162 | 27.78° C | 77% | 1006.7 hPa | 0 mm | - | 77 W/m² | - |
| 1778096860 | 27.78° C | 78% | 1006.8 hPa | 0 mm | - | 87 W/m² | - |
| 1778096556 | 27.78° C | 77% | 1006.8 hPa | 0 mm | - | 108 W/m² | - |
| 1778096254 | 27.78° C | 77% | 1006.9 hPa | 0 mm | - | 120 W/m² | - |
| 1778095950 | 27.78° C | 77% | 1007 hPa | 0 mm | - | 131 W/m² | - |
| 1778095647 | 27.78° C | 77% | 1007.2 hPa | 0 mm | - | 143 W/m² | - |
| 1778095344 | 27.78° C | 77% | 1007.1 hPa | 0 mm | - | 154 W/m² | - |
| 1778095041 | 27.78° C | 77% | 1007.3 hPa | 0 mm | - | 169 W/m² | - |
| 1778094736 | 27.78° C | 77% | 1007.2 hPa | 0 mm | - | 162 W/m² | - |
| 1778094434 | 27.78° C | 77% | 1007.3 hPa | 0 mm | - | 189 W/m² | - |
| 1778094130 | 27.78° C | 76% | 1007.3 hPa | 0 mm | - | 206 W/m² | - |
* Rain latest hour (hover to see other rain measurements)
** Current wind speed in m/s (hover to see current wind gust speed)